• In Uzbekistan
  • List of Countries
  • For 7 days
  • Water Temperature
  • Satellite Maps
  • Weather Map
  • Weather Widgets
  • user-avatar
    Login

    Hourly Weather Rydzyny

    Today, 21 May, Tuesday

    Time Temperature Precipitation Wind Pressure Humidity
    00:00 +15°C° 0 mm 2 mps 737 mmHg 87%
    01:00 +14°C° 0 mm 2 mps 737 mmHg 90%
    02:00 +14°C° 0 mm 1 mps 737 mmHg 90%
    03:00 +14°C° 0 mm 1 mps 737 mmHg 90%
    04:00 +14°C° 0 mm 1 mps 737 mmHg 90%
    05:00 +15°C° 0 mm 1 mps 737 mmHg 84%
    06:00 +16°C° 0 mm 1 mps 737 mmHg 79%
    07:00 +18°C° 0 mm 1 mps 737 mmHg 74%
    08:00 +19°C° 0 mm 1 mps 737 mmHg 72%
    09:00 +20°C° 0 mm 1 mps 737 mmHg 69%
    10:00 +20°C° 0 mm 1 mps 737 mmHg 67%
    11:00 +21°C° 0 mm 1 mps 736 mmHg 63%
    12:00 +22°C° 0 mm 1 mps 736 mmHg 59%
    13:00 +23°C° 0 mm 2 mps 736 mmHg 55%
    14:00 +23°C° 0.5 mm 2 mps 736 mmHg 59%
    15:00 +23°C° 0.5 mm 2 mps 735 mmHg 62%
    16:00 +22°C° 0.5 mm 3 mps 735 mmHg 66%
    17:00 +20°C° 1.8 mm 3 mps 735 mmHg 72%
    18:00 +19°C° 1.8 mm 3 mps 735 mmHg 79%
    19:00 +18°C° 1.8 mm 3 mps 735 mmHg 86%
    20:00 +17°C° 0.7 mm 3 mps 735 mmHg 89%
    21:00 +16°C° 0.7 mm 3 mps 735 mmHg 91%
    22:00 +14°C° 0.7 mm 3 mps 735 mmHg 93%
    23:00 +14°C° 0 mm 2 mps 735 mmHg 93%

    Tomorrow, 22 May, Wednesday

    Time Temperature Precipitation Wind Pressure Humidity
    00:00 +13°C° 0 mm 2 mps 735 mmHg 94%
    01:00 +13°C° 0 mm 2 mps 735 mmHg 94%
    02:00 +12°C° 0 mm 2 mps 735 mmHg 95%
    03:00 +12°C° 0 mm 2 mps 735 mmHg 95%
    04:00 +10°C° 0 mm 2 mps 735 mmHg 96%
    05:00 +11°C° 0.1 mm 3 mps 735 mmHg 95%
    06:00 +12°C° 0.1 mm 3 mps 735 mmHg 94%
    07:00 +12°C° 0.1 mm 4 mps 735 mmHg 93%
    08:00 +13°C° 0.1 mm 4 mps 736 mmHg 92%
    09:00 +13°C° 0.1 mm 4 mps 736 mmHg 91%
    10:00 +13°C° 0.1 mm 5 mps 736 mmHg 91%
    11:00 +15°C° 0.3 mm 5 mps 736 mmHg 87%
    12:00 +16°C° 0.3 mm 5 mps 737 mmHg 84%
    13:00 +17°C° 0.3 mm 5 mps 737 mmHg 80%
    14:00 +17°C° 1.3 mm 5 mps 737 mmHg 80%
    15:00 +17°C° 1.3 mm 5 mps 737 mmHg 80%
    16:00 +17°C° 1.3 mm 5 mps 737 mmHg 80%
    17:00 +17°C° 0.8 mm 5 mps 737 mmHg 82%
    18:00 +17°C° 0.8 mm 4 mps 738 mmHg 84%
    19:00 +17°C° 0.8 mm 4 mps 738 mmHg 86%
    20:00 +15°C° 0.8 mm 4 mps 738 mmHg 89%
    21:00 +15°C° 0.8 mm 4 mps 739 mmHg 91%
    22:00 +14°C° 0.8 mm 5 mps 739 mmHg 94%
    23:00 +14°C° 0.5 mm 5 mps 740 mmHg 94%

    Day after tomorrow, 23 May, Thursday

    Time Temperature Precipitation Wind Pressure Humidity
    00:00 +14°C° 0.5 mm 6 mps 740 mmHg 95%
    01:00 +14°C° 0.5 mm 6 mps 740 mmHg 95%
    02:00 +14°C° 0.3 mm 6 mps 741 mmHg 95%
    03:00 +14°C° 0.3 mm 6 mps 741 mmHg 94%
    04:00 +14°C° 0.3 mm 6 mps 741 mmHg 94%
    05:00 +13°C° 0.1 mm 6 mps 742 mmHg 94%
    06:00 +11°C° 0.1 mm 6 mps 742 mmHg 93%
    07:00 +11°C° 0.1 mm 6 mps 743 mmHg 93%
    08:00 +10°C° 0.1 mm 6 mps 743 mmHg 92%
    09:00 +10°C° 0.1 mm 7 mps 743 mmHg 92%
    10:00 +9°C° 0.1 mm 7 mps 744 mmHg 91%
    11:00 +9°C° 0.1 mm 7 mps 744 mmHg 89%
    12:00 +9°C° 0.1 mm 7 mps 744 mmHg 88%
    13:00 +9°C° 0.1 mm 7 mps 744 mmHg 86%
    14:00 +10°C° 0 mm 6 mps 745 mmHg 83%
    15:00 +10°C° 0 mm 5 mps 745 mmHg 79%
    16:00 +12°C° 0 mm 5 mps 745 mmHg 75%
    17:00 +12°C° 0 mm 4 mps 745 mmHg 76%
    18:00 +12°C° 0 mm 3 mps 745 mmHg 77%
    19:00 +13°C° 0 mm 2 mps 745 mmHg 78%
    20:00 +12°C° 0 mm 2 mps 745 mmHg 80%
    21:00 +11°C° 0 mm 3 mps 745 mmHg 81%
    22:00 +11°C° 0 mm 3 mps 745 mmHg 82%
    23:00 +10°C° 0 mm 3 mps 745 mmHg 80%

    24 May, Friday

    Time Temperature Precipitation Wind Pressure Humidity
    00:00 +9°C° 0 mm 3 mps 745 mmHg 79%
    01:00 +8°C° 0 mm 3 mps 745 mmHg 78%
    02:00 +7°C° 0 mm 3 mps 745 mmHg 77%
    03:00 +5°C° 0 mm 3 mps 745 mmHg 76%
    04:00 +6°C° 0 mm 2 mps 745 mmHg 75%
    05:00 +7°C° 0 mm 2 mps 745 mmHg 72%
    06:00 +9°C° 0 mm 2 mps 745 mmHg 69%
    07:00 +10°C° 0 mm 2 mps 745 mmHg 66%
    08:00 +12°C° 0 mm 3 mps 744 mmHg 62%
    09:00 +14°C° 0 mm 3 mps 744 mmHg 58%
    10:00 +16°C° 0 mm 3 mps 744 mmHg 54%
    11:00 +17°C° 0 mm 3 mps 744 mmHg 53%
    12:00 +18°C° 0 mm 3 mps 743 mmHg 52%
    13:00 +19°C° 0 mm 3 mps 743 mmHg 52%
    14:00 +19°C° 0 mm 3 mps 742 mmHg 53%
    15:00 +19°C° 0 mm 3 mps 742 mmHg 54%
    16:00 +19°C° 0 mm 2 mps 742 mmHg 56%
    17:00 +18°C° 0 mm 2 mps 741 mmHg 61%
    18:00 +18°C° 0 mm 1 mps 741 mmHg 66%
    19:00 +16°C° 0 mm 1 mps 741 mmHg 71%
    20:00 +14°C° 0 mm 0 mps 741 mmHg 74%
    21:00 +13°C° 0 mm 0 mps 741 mmHg 77%
    22:00 +12°C° 0 mm 0 mps 741 mmHg 80%
    23:00 +11°C° 0 mm 0 mps 741 mmHg 81%

    25 May, Saturday

    Time Temperature Precipitation Wind Pressure Humidity
    00:00 +12°C° 0 mm 1 mps 741 mmHg 82%
    01:00 +12°C° 0 mm 1 mps 741 mmHg 83%
    02:00 +12°C° 0 mm 1 mps 741 mmHg 84%
    03:00 +10°C° 0 mm 2 mps 741 mmHg 85%
    04:00 +10°C° 0 mm 2 mps 741 mmHg 86%
    05:00 +13°C° 0 mm 2 mps 741 mmHg 81%
    06:00 +14°C° 0 mm 2 mps 741 mmHg 77%
    07:00 +16°C° 0 mm 3 mps 741 mmHg 72%
    08:00 +17°C° 0 mm 3 mps 741 mmHg 67%
    09:00 +19°C° 0 mm 3 mps 740 mmHg 61%
    10:00 +20°C° 0 mm 4 mps 740 mmHg 56%
    11:00 +21°C° 0 mm 4 mps 740 mmHg 54%
    12:00 +22°C° 0 mm 4 mps 740 mmHg 52%
    13:00 +22°C° 0 mm 4 mps 740 mmHg 51%
    14:00 +21°C° 0.7 mm 3 mps 740 mmHg 60%
    15:00 +19°C° 0.7 mm 3 mps 740 mmHg 70%
    16:00 +18°C° 0.7 mm 2 mps 739 mmHg 80%
    17:00 +18°C° 0.8 mm 2 mps 740 mmHg 81%
    18:00 +17°C° 0.8 mm 2 mps 740 mmHg 82%
    19:00 +17°C° 0.8 mm 2 mps 740 mmHg 83%
    20:00 +16°C° 0.3 mm 2 mps 740 mmHg 86%
    21:00 +14°C° 0.3 mm 3 mps 741 mmHg 89%
    22:00 +13°C° 0.3 mm 3 mps 741 mmHg 92%
    23:00 +12°C° 0 mm 3 mps 741 mmHg 92%

    26 May, Sunday

    Time Temperature Precipitation Wind Pressure Humidity
    00:00 +11°C° 0 mm 3 mps 742 mmHg 92%
    01:00 +11°C° 0 mm 3 mps 742 mmHg 92%
    02:00 +11°C° 0 mm 3 mps 742 mmHg 90%
    03:00 +12°C° 0 mm 2 mps 742 mmHg 89%
    04:00 +12°C° 0 mm 2 mps 742 mmHg 87%
    05:00 +12°C° 0 mm 2 mps 743 mmHg 85%
    06:00 +11°C° 0 mm 3 mps 743 mmHg 83%
    07:00 +12°C° 0 mm 4 mps 743 mmHg 81%
    08:00 +13°C° 0.1 mm 4 mps 743 mmHg 75%
    09:00 +13°C° 0.1 mm 5 mps 743 mmHg 70%
    10:00 +14°C° 0.1 mm 5 mps 743 mmHg 65%
    11:00 +15°C° 0 mm 5 mps 743 mmHg 63%
    12:00 +15°C° 0 mm 5 mps 743 mmHg 61%
    13:00 +16°C° 0 mm 5 mps 743 mmHg 60%
    14:00 +17°C° 0.1 mm 4 mps 743 mmHg 59%
    15:00 +17°C° 0.1 mm 4 mps 743 mmHg 59%
    16:00 +18°C° 0.1 mm 4 mps 743 mmHg 58%
    17:00 +17°C° 0 mm 3 mps 742 mmHg 64%
    18:00 +16°C° 0 mm 2 mps 742 mmHg 69%
    19:00 +15°C° 0 mm 2 mps 742 mmHg 75%
    20:00 +14°C° 0 mm 2 mps 742 mmHg 78%
    21:00 +13°C° 0 mm 2 mps 742 mmHg 81%
    22:00 +11°C° 0 mm 3 mps 743 mmHg 83%
    23:00 +11°C° 0 mm 3 mps 743 mmHg 84%
    Show more